Back to Top

Language: 

My Weather Underground Personal Weather Station Historical Data with Graphs...

Delerius Weather Station Historical Data
Daily Summary for September 26, 2017 Units:  Metric    English   Both
« Previous Day
Next Day »
Daily Weekly Monthly Yearly Custom
  High: Low: Average:
Temperature: 17.9 °C 12.8 °C 14.7 °C
Dew Point: 14 °C 12.2 °C 13.1 °C
Humidity: 98 % 76 % 91 %
Wind Speed: 11.3 km/h 0 km/h 2.4 km/h
Wind Gust: 22.5 km/h - -
Wind:- - East
Pressure: 1023.6 hPa 1021.9 hPa -
Precipitation: 0 mm    
Historical Graphs
 
 
Tabular Data for September 26, 2017
Time Temperature Dew Point Pressure Wind Wind Speed Wind Gust Humidity Rainfall Rate (Hourly) solar Conditions
00:04 14.3 °C 13.3 °C 1022.6 hPa Calm     94 % 0 mm 0 W/m2
00:06 14.2 °C 13.2 °C 1022.6 hPa Calm     94 % 0 mm 0 W/m2
00:11 14.2 °C 13.2 °C 1022.6 hPa Calm     94 % 0 mm 0 W/m2
00:16 14.2 °C 13.2 °C 1022.6 hPa Calm   1.6 km/h 94 % 0 mm 0 W/m2
00:21 14.1 °C 13.2 °C 1022.6 hPa Calm   1.6 km/h 94 % 0 mm 0 W/m2
00:26 14.1 °C 13.2 °C 1022.6 hPa Calm     94 % 0 mm 0 W/m2
00:31 14.1 °C 13.2 °C 1022.6 hPa Calm     94 % 0 mm 0 W/m2
00:36 14.1 °C 13.3 °C 1022.6 hPa Calm   3.2 km/h 95 % 0 mm 0 W/m2
00:41 14.1 °C 13.3 °C 1022.6 hPa Calm   3.2 km/h 95 % 0 mm 0 W/m2
00:46 14.1 °C 13.3 °C 1022.6 hPa Calm   4.8 km/h 95 % 0 mm 0 W/m2
00:51 14 °C 13.2 °C 1022.6 hPa Calm   8 km/h 95 % 0 mm 0 W/m2
00:56 14 °C 13.2 °C 1022.6 hPa Calm   8 km/h 95 % 0 mm 0 W/m2
01:00 14 °C 13.2 °C 1022.6 hPa Calm   1.6 km/h 95 % 0 mm 0 W/m2
01:05 14 °C 13.2 °C 1022.6 hPa Calm   6.4 km/h 95 % 0 mm 0 W/m2
01:10 14 °C 13.2 °C 1022.6 hPa ENE 1.6 km/h 6.4 km/h 95 % 0 mm 0 W/m2
01:15 13.9 °C 13.1 °C 1022.6 hPa ENE 1.6 km/h 6.4 km/h 95 % 0 mm 0 W/m2
01:20 13.9 °C 13.1 °C 1022.6 hPa ENE 1.6 km/h 6.4 km/h 95 % 0 mm 0 W/m2
01:25 13.9 °C 13.1 °C 1022.6 hPa Calm   3.2 km/h 95 % 0 mm 0 W/m2
01:30 13.9 °C 13.1 °C 1022.9 hPa Calm   1.6 km/h 95 % 0 mm 0 W/m2
01:35 13.9 °C 13.1 °C 1022.9 hPa Calm   1.6 km/h 95 % 0 mm 0 W/m2
01:40 13.9 °C 13.1 °C 1022.6 hPa Calm   1.6 km/h 95 % 0 mm 0 W/m2
01:45 13.9 °C 13.1 °C 1022.9 hPa Calm   1.6 km/h 95 % 0 mm 0 W/m2
01:50 13.9 °C 13.1 °C 1022.9 hPa Calm   1.6 km/h 95 % 0 mm 0 W/m2
01:55 13.9 °C 13.1 °C 1022.6 hPa Calm     95 % 0 mm 0 W/m2
02:00 13.9 °C 13.1 °C 1022.6 hPa Calm     95 % 0 mm 0 W/m2
02:05 13.9 °C 13.1 °C 1022.6 hPa Calm     95 % 0 mm 0 W/m2
02:10 13.9 °C 13.1 °C 1022.6 hPa Calm   6.4 km/h 95 % 0 mm 0 W/m2
02:15 13.9 °C 13.1 °C 1022.6 hPa ENE 1.6 km/h 6.4 km/h 95 % 0 mm 0 W/m2
02:20 13.9 °C 13.1 °C 1022.6 hPa Calm   6.4 km/h 95 % 0 mm 0 W/m2
02:25 13.9 °C 13.1 °C 1022.6 hPa Calm   3.2 km/h 95 % 0 mm 0 W/m2
02:30 13.8 °C 13 °C 1022.6 hPa Calm   4.8 km/h 95 % 0 mm 0 W/m2
02:35 13.8 °C 13 °C 1022.6 hPa Calm   4.8 km/h 95 % 0 mm 0 W/m2
02:40 13.8 °C 13 °C 1022.6 hPa Calm     95 % 0 mm 0 W/m2
02:50 13.8 °C 13 °C 1022.6 hPa Calm     95 % 0 mm 0 W/m2
02:55 13.8 °C 13.2 °C 1022.6 hPa Calm     96 % 0 mm 0 W/m2
03:00 13.8 °C 13.2 °C 1022.6 hPa Calm   3.2 km/h 96 % 0 mm 0 W/m2
03:05 13.8 °C 13.2 °C 1022.6 hPa Calm   6.4 km/h 96 % 0 mm 0 W/m2
03:06 13.7 °C 13.1 °C 1022.6 hPa Calm   6.4 km/h 96 % 0 mm 0 W/m2
03:11 13.7 °C 13.1 °C 1022.9 hPa Calm   6.4 km/h 96 % 0 mm 0 W/m2
03:16 13.7 °C 13.1 °C 1022.6 hPa Calm   3.2 km/h 96 % 0 mm 0 W/m2
03:17 13.7 °C 13.1 °C 1022.9 hPa Calm   8 km/h 96 % 0 mm 0 W/m2
03:22 13.7 °C 13.1 °C 1022.9 hPa ENE 1.6 km/h 8 km/h 96 % 0 mm 0 W/m2
03:27 13.7 °C 12.9 °C 1022.9 hPa ENE 1.6 km/h 8 km/h 95 % 0 mm 0 W/m2
03:32 13.6 °C 12.8 °C 1022.9 hPa ENE 1.6 km/h 9.7 km/h 95 % 0 mm 0 W/m2
03:37 13.6 °C 13 °C 1022.9 hPa ENE 1.6 km/h 9.7 km/h 96 % 0 mm 0 W/m2
03:42 13.6 °C 13 °C 1022.9 hPa ENE 1.6 km/h 8 km/h 96 % 0 mm 0 W/m2
03:47 13.6 °C 13 °C 1022.9 hPa ENE 1.6 km/h 8 km/h 96 % 0 mm 0 W/m2
03:48 13.6 °C 13 °C 1022.9 hPa ENE 1.6 km/h 8 km/h 96 % 0 mm 0 W/m2
03:53 13.5 °C 12.9 °C 1022.9 hPa NE 3.2 km/h 9.7 km/h 96 % 0 mm 0 W/m2
03:58 13.4 °C 12.8 °C 1022.9 hPa NE 1.6 km/h 9.7 km/h 96 % 0 mm 0 W/m2
04:03 13.4 °C 12.8 °C 1022.9 hPa Calm   6.4 km/h 96 % 0 mm 0 W/m2
04:08 13.4 °C 12.8 °C 1022.9 hPa Calm   6.4 km/h 96 % 0 mm 0 W/m2
04:14 13.4 °C 12.8 °C 1022.9 hPa Calm   6.4 km/h 96 % 0 mm 0 W/m2
04:24 13.4 °C 12.8 °C 1022.9 hPa Calm   6.4 km/h 96 % 0 mm 0 W/m2
04:25 13.4 °C 12.8 °C 1022.9 hPa Calm   6.4 km/h 96 % 0 mm 0 W/m2
04:27 13.4 °C 12.8 °C 1022.6 hPa Calm   6.4 km/h 96 % 0 mm 0 W/m2
04:29 13.4 °C 12.8 °C 1022.6 hPa Calm   6.4 km/h 96 % 0 mm 0 W/m2
04:31 13.4 °C 12.8 °C 1022.6 hPa Calm   6.4 km/h 96 % 0 mm 0 W/m2
04:36 13.3 °C 12.7 °C 1022.6 hPa Calm   4.8 km/h 96 % 0 mm 0 W/m2
04:41 13.3 °C 12.7 °C 1022.6 hPa Calm   4.8 km/h 96 % 0 mm 0 W/m2
04:51 13.3 °C 12.7 °C 1022.6 hPa Calm     96 % 0 mm 0 W/m2
04:56 13.3 °C 12.7 °C 1022.6 hPa Calm   3.2 km/h 96 % 0 mm 0 W/m2
04:58 13.3 °C 12.7 °C 1022.6 hPa Calm   4.8 km/h 96 % 0 mm 0 W/m2
05:03 13.3 °C 12.7 °C 1022.6 hPa Calm   4.8 km/h 96 % 0 mm 0 W/m2
05:08 13.2 °C 12.6 °C 1022.6 hPa Calm   3.2 km/h 96 % 0 mm 0 W/m2
05:13 13.2 °C 12.6 °C 1022.6 hPa NE 1.6 km/h 6.4 km/h 96 % 0 mm 0 W/m2
05:18 13.1 °C 12.5 °C 1022.6 hPa Calm   6.4 km/h 96 % 0 mm 0 W/m2
05:23 13.1 °C 12.5 °C 1022.6 hPa Calm   1.6 km/h 96 % 0 mm 0 W/m2
05:28 13.1 °C 12.5 °C 1022.6 hPa Calm   1.6 km/h 96 % 0 mm 0 W/m2
05:33 13.1 °C 12.5 °C 1022.6 hPa Calm     96 % 0 mm 0 W/m2
05:38 13 °C 12.4 °C 1022.6 hPa Calm   3.2 km/h 96 % 0 mm 0 W/m2
05:43 13 °C 12.4 °C 1022.6 hPa Calm   3.2 km/h 96 % 0 mm 0 W/m2
05:48 12.9 °C 12.3 °C 1022.6 hPa Calm   3.2 km/h 96 % 0 mm 0 W/m2
05:53 12.9 °C 12.4 °C 1022.6 hPa Calm   3.2 km/h 97 % 0 mm 0 W/m2
05:58 12.9 °C 12.4 °C 1022.6 hPa Calm   3.2 km/h 97 % 0 mm 0 W/m2
06:03 12.9 °C 12.4 °C 1022.6 hPa Calm   3.2 km/h 97 % 0 mm 0 W/m2
06:08 12.8 °C 12.3 °C 1022.6 hPa Calm     97 % 0 mm 0 W/m2
06:14 12.8 °C 12.3 °C 1022.9 hPa Calm   3.2 km/h 97 % 0 mm 0 W/m2
06:19 12.8 °C 12.3 °C 1022.9 hPa Calm   3.2 km/h 97 % 0 mm 0 W/m2
06:24 12.8 °C 12.3 °C 1022.9 hPa Calm     97 % 0 mm 0 W/m2
06:29 12.8 °C 12.3 °C 1022.9 hPa Calm     97 % 0 mm 0 W/m2
06:34 12.8 °C 12.3 °C 1022.9 hPa Calm     97 % 0 mm 0 W/m2
06:39 12.8 °C 12.3 °C 1022.9 hPa Calm   3.2 km/h 97 % 0 mm 0 W/m2
06:44 12.8 °C 12.3 °C 1022.9 hPa Calm   3.2 km/h 97 % 0 mm 0 W/m2
06:49 12.8 °C 12.3 °C 1022.9 hPa Calm     97 % 0 mm 0 W/m2
06:54 12.8 °C 12.3 °C 1022.9 hPa Calm     97 % 0 mm 0 W/m2
06:59 12.8 °C 12.3 °C 1022.9 hPa Calm     97 % 0 mm 0 W/m2
07:04 12.8 °C 12.3 °C 1022.9 hPa Calm     97 % 0 mm 0 W/m2
07:09 12.8 °C 12.3 °C 1022.9 hPa Calm     97 % 0 mm 0 W/m2
07:14 12.8 °C 12.3 °C 1023.2 hPa Calm     97 % 0 mm 5 W/m2
07:19 12.9 °C 12.4 °C 1023.2 hPa Calm     97 % 0 mm 7 W/m2
07:24 12.9 °C 12.4 °C 1022.9 hPa Calm   3.2 km/h 97 % 0 mm 7 W/m2
07:29 12.9 °C 12.4 °C 1022.9 hPa Calm   3.2 km/h 97 % 0 mm 11 W/m2
07:34 12.9 °C 12.4 °C 1023.2 hPa Calm     97 % 0 mm 14 W/m2
07:39 12.9 °C 12.4 °C 1023.2 hPa Calm   1.6 km/h 97 % 0 mm 11 W/m2
07:44 12.9 °C 12.4 °C 1023.2 hPa Calm   1.6 km/h 97 % 0 mm 12 W/m2
07:49 12.9 °C 12.4 °C 1023.2 hPa Calm   1.6 km/h 97 % 0 mm 21 W/m2
07:59 13 °C 12.6 °C 1023.2 hPa Calm     97 % 0 mm 12 W/m2
08:04 13 °C 12.6 °C 1023.2 hPa Calm     97 % 0 mm 19 W/m2
08:09 13 °C 12.6 °C 1023.2 hPa Calm     97 % 0 mm 18 W/m2
08:14 13.1 °C 12.6 °C 1023.6 hPa Calm     97 % 0 mm 14 W/m2
08:19 13.1 °C 12.6 °C 1023.6 hPa Calm     97 % 0 mm 39 W/m2
08:24 13.1 °C 12.6 °C 1023.6 hPa Calm     97 % 0 mm 42 W/m2
08:29 13.2 °C 12.7 °C 1023.6 hPa Calm     97 % 0 mm 39 W/m2
08:34 13.2 °C 12.7 °C 1023.6 hPa Calm     97 % 0 mm 33 W/m2
08:39 13.2 °C 12.7 °C 1023.6 hPa Calm     97 % 0 mm 37 W/m2
08:44 13.2 °C 12.7 °C 1023.6 hPa Calm     97 % 0 mm 40 W/m2
08:49 13.3 °C 12.8 °C 1023.6 hPa Calm   1.6 km/h 97 % 0 mm 44 W/m2
08:54 13.3 °C 12.8 °C 1023.6 hPa Calm   1.6 km/h 97 % 0 mm 77 W/m2
08:59 13.3 °C 12.8 °C 1023.6 hPa Calm   6.4 km/h 97 % 0 mm 53 W/m2
09:04 13.3 °C 12.8 °C 1023.6 hPa Calm   6.4 km/h 97 % 0 mm 28 W/m2
09:09 13.3 °C 12.8 °C 1023.6 hPa Calm   3.2 km/h 97 % 0 mm 51 W/m2
09:15 13.4 °C 12.9 °C 1023.6 hPa NE 1.6 km/h 4.8 km/h 97 % 0 mm 111 W/m2
09:20 13.4 °C 12.9 °C 1023.6 hPa Calm   6.4 km/h 97 % 0 mm 141 W/m2
09:25 13.5 °C 13.1 °C 1023.6 hPa NE 1.6 km/h 6.4 km/h 97 % 0 mm 77 W/m2
09:30 13.6 °C 13.1 °C 1023.6 hPa NE 1.6 km/h 9.7 km/h 97 % 0 mm 100 W/m2
09:35 13.6 °C 13.3 °C 1023.6 hPa NE 1.6 km/h 9.7 km/h 98 % 0 mm 142 W/m2
09:40 13.8 °C 13.3 °C 1023.6 hPa NE 3.2 km/h 9.7 km/h 97 % 0 mm 181 W/m2
09:45 13.8 °C 13.3 °C 1023.6 hPa ENE 1.6 km/h 11.3 km/h 97 % 0 mm 271 W/m2
09:50 13.9 °C 13.4 °C 1023.6 hPa East 1.6 km/h 11.3 km/h 97 % 0 mm 200 W/m2
09:55 13.8 °C 13.3 °C 1023.6 hPa East 3.2 km/h 11.3 km/h 97 % 0 mm 158 W/m2
10:00 13.9 °C 13.4 °C 1023.6 hPa East 3.2 km/h 11.3 km/h 97 % 0 mm 204 W/m2
10:05 13.9 °C 13.4 °C 1023.6 hPa East 3.2 km/h 9.7 km/h 97 % 0 mm 149 W/m2
10:10 14.1 °C 13.6 °C 1023.6 hPa East 3.2 km/h 9.7 km/h 97 % 0 mm 142 W/m2
10:15 14.1 °C 13.6 °C 1023.6 hPa East 3.2 km/h 8 km/h 97 % 0 mm 153 W/m2
10:20 14.1 °C 13.6 °C 1023.6 hPa ENE 1.6 km/h 8 km/h 97 % 0 mm 160 W/m2
10:25 14.2 °C 13.7 °C 1023.6 hPa ENE 1.6 km/h 6.4 km/h 97 % 0 mm 158 W/m2
10:30 14.3 °C 13.7 °C 1023.6 hPa ENE 1.6 km/h 8 km/h 96 % 0 mm 179 W/m2
10:35 14.3 °C 13.7 °C 1023.6 hPa ENE 1.6 km/h 8 km/h 96 % 0 mm 188 W/m2
10:40 14.4 °C 13.6 °C 1023.6 hPa Calm   4.8 km/h 95 % 0 mm 214 W/m2
10:45 14.6 °C 13.8 °C 1023.6 hPa Calm   4.8 km/h 95 % 0 mm 243 W/m2
10:50 14.7 °C 13.7 °C 1023.2 hPa ENE 1.6 km/h 6.4 km/h 94 % 0 mm 267 W/m2
10:55 14.8 °C 13.7 °C 1023.2 hPa ENE 1.6 km/h 6.4 km/h 93 % 0 mm 302 W/m2
11:00 15 °C 13.9 °C 1023.2 hPa ENE 1.6 km/h 6.4 km/h 93 % 0 mm 262 W/m2
11:05 15.2 °C 13.7 °C 1023.2 hPa ENE 1.6 km/h 8 km/h 91 % 0 mm 207 W/m2
11:10 15.3 °C 13.8 °C 1023.2 hPa ENE 1.6 km/h 8 km/h 91 % 0 mm 174 W/m2
11:15 15.4 °C 13.6 °C 1023.2 hPa ENE 1.6 km/h 6.4 km/h 89 % 0 mm 98 W/m2
11:20 15.4 °C 13.4 °C 1023.6 hPa East 3.2 km/h 9.7 km/h 88 % 0 mm 102 W/m2
11:25 15.4 °C 13.2 °C 1023.6 hPa East 3.2 km/h 9.7 km/h 87 % 0 mm 97 W/m2
11:30 15.4 °C 13.2 °C 1023.6 hPa East 1.6 km/h 8 km/h 87 % 0 mm 77 W/m2
11:35 15.4 °C 13.2 °C 1023.6 hPa East 1.6 km/h 8 km/h 87 % 0 mm 74 W/m2
11:37 15.5 °C 13.3 °C 1023.6 hPa East 1.6 km/h 8 km/h 87 % 0 mm 74 W/m2
11:42 15.5 °C 13.3 °C 1023.6 hPa East 1.6 km/h 6.4 km/h 87 % 0 mm 67 W/m2
11:52 15.4 °C 13.2 °C 1023.6 hPa East 1.6 km/h 8 km/h 87 % 0 mm 113 W/m2
11:54 15.4 °C 13.2 °C 1023.6 hPa East 1.6 km/h 8 km/h 87 % 0 mm 127 W/m2
11:59 15.4 °C 13.2 °C 1023.6 hPa East 3.2 km/h 8 km/h 87 % 0 mm 158 W/m2
12:09 15.5 °C 13.5 °C 1023.6 hPa East 1.6 km/h 8 km/h 88 % 0 mm 146 W/m2
12:14 15.6 °C 13.4 °C 1023.2 hPa East 3.2 km/h 11.3 km/h 87 % 0 mm 142 W/m2
12:19 15.7 °C 13.6 °C 1023.2 hPa East 3.2 km/h 11.3 km/h 87 % 0 mm 149 W/m2
12:24 15.7 °C 13.4 °C 1023.2 hPa East 3.2 km/h 8 km/h 86 % 0 mm 158 W/m2
12:29 15.7 °C 13.4 °C 1023.2 hPa East 3.2 km/h 8 km/h 86 % 0 mm 151 W/m2
12:34 15.8 °C 13.4 °C 1023.2 hPa Calm   4.8 km/h 86 % 0 mm 163 W/m2
12:39 15.9 °C 13.4 °C 1023.2 hPa ESE 1.6 km/h 8 km/h 85 % 0 mm 206 W/m2
12:44 15.9 °C 13.4 °C 1023.2 hPa ESE 3.2 km/h 8 km/h 85 % 0 mm 251 W/m2
12:49 16 °C 13.3 °C 1023.2 hPa ESE 3.2 km/h 8 km/h 84 % 0 mm 285 W/m2
12:54 16.1 °C 13.4 °C 1023.2 hPa ESE 1.6 km/h 8 km/h 84 % 0 mm 295 W/m2
12:59 16.3 °C 13.6 °C 1023.2 hPa East 1.6 km/h 8 km/h 84 % 0 mm 234 W/m2
13:04 16.4 °C 13.5 °C 1023.2 hPa ESE 3.2 km/h 11.3 km/h 83 % 0 mm 285 W/m2
13:09 16.5 °C 13.4 °C 1023.2 hPa SE 4.8 km/h 11.3 km/h 82 % 0 mm 336 W/m2
13:14 16.6 °C 13.3 °C 1022.9 hPa SE 4.8 km/h 11.3 km/h 81 % 0 mm 399 W/m2
13:20 16.8 °C 13.5 °C 1023.2 hPa ESE 3.2 km/h 9.7 km/h 81 % 0 mm 290 W/m2
13:25 16.9 °C 13.2 °C 1023.2 hPa ESE 4.8 km/h 12.9 km/h 79 % 0 mm 295 W/m2
13:30 17 °C 13.3 °C 1022.9 hPa SE 6.4 km/h 12.9 km/h 79 % 0 mm 229 W/m2
13:35 17 °C 13.1 °C 1023.2 hPa SE 4.8 km/h 11.3 km/h 78 % 0 mm 278 W/m2
13:40 17.1 °C 13.2 °C 1023.2 hPa ESE 4.8 km/h 11.3 km/h 78 % 0 mm 504 W/m2
13:44 17.2 °C 12.9 °C 1022.9 hPa SE 6.4 km/h 11.3 km/h 76 % 0 mm 346 W/m2
13:49 17.2 °C 12.9 °C 1022.9 hPa SE 8 km/h 11.3 km/h 76 % 0 mm 422 W/m2
13:55 17.3 °C 13.2 °C 1022.9 hPa SE 6.4 km/h 11.3 km/h 77 % 0 mm 246 W/m2
14:00 17.4 °C 13.3 °C 1022.9 hPa SE 3.2 km/h 9.7 km/h 77 % 0 mm 220 W/m2
14:05 17.4 °C 13.3 °C 1022.9 hPa SE 3.2 km/h 9.7 km/h 77 % 0 mm 230 W/m2
14:10 17.4 °C 13.3 °C 1022.9 hPa ESE 4.8 km/h 14.5 km/h 77 % 0 mm 225 W/m2
14:15 17.3 °C 13.2 °C 1022.9 hPa ESE 6.4 km/h 14.5 km/h 77 % 0 mm 186 W/m2
14:20 17.3 °C 13.2 °C 1022.9 hPa ESE 4.8 km/h 14.5 km/h 77 % 0 mm 162 W/m2
14:25 17.2 °C 13.3 °C 1022.9 hPa ESE 3.2 km/h 11.3 km/h 78 % 0 mm 188 W/m2
14:30 17.2 °C 13.5 °C 1022.6 hPa ESE 4.8 km/h 11.3 km/h 79 % 0 mm 195 W/m2
14:35 17.3 °C 13.6 °C 1022.9 hPa ESE 3.2 km/h 11.3 km/h 79 % 0 mm 151 W/m2
14:40 17.3 °C 13.4 °C 1022.6 hPa ESE 1.6 km/h 9.7 km/h 78 % 0 mm 192 W/m2
14:44 17.2 °C 13.5 °C 1022.6 hPa East 3.2 km/h 9.7 km/h 79 % 0 mm 246 W/m2
14:49 17.3 °C 13.6 °C 1022.6 hPa East 3.2 km/h 9.7 km/h 79 % 0 mm 234 W/m2
14:55 17.3 °C 13.6 °C 1022.6 hPa ESE 4.8 km/h 9.7 km/h 79 % 0 mm 207 W/m2
15:00 17.3 °C 13.4 °C 1022.6 hPa ESE 3.2 km/h 9.7 km/h 78 % 0 mm 225 W/m2
15:05 17.3 °C 13.4 °C 1022.6 hPa ESE 4.8 km/h 9.7 km/h 78 % 0 mm 199 W/m2
15:10 17.3 °C 13.6 °C 1022.6 hPa East 4.8 km/h 9.7 km/h 79 % 0 mm 229 W/m2
15:15 17.4 °C 13.7 °C 1022.6 hPa East 3.2 km/h 9.7 km/h 79 % 0 mm 279 W/m2
15:20 17.4 °C 13.7 °C 1022.6 hPa East 3.2 km/h 9.7 km/h 79 % 0 mm 243 W/m2
15:25 17.4 °C 13.5 °C 1022.6 hPa East 3.2 km/h 8 km/h 78 % 0 mm 183 W/m2
15:30 17.4 °C 13.7 °C 1022.2 hPa ESE 3.2 km/h 9.7 km/h 79 % 0 mm 148 W/m2
15:35 17.3 °C 13.6 °C 1022.6 hPa East 3.2 km/h 9.7 km/h 79 % 0 mm 137 W/m2
15:40 17.2 °C 13.5 °C 1022.2 hPa East 3.2 km/h 8 km/h 79 % 0 mm 137 W/m2
15:45 17.2 °C 13.7 °C 1022.2 hPa East 1.6 km/h 8 km/h 80 % 0 mm 151 W/m2
15:50 17.2 °C 13.7 °C 1022.2 hPa East 1.6 km/h 4.8 km/h 80 % 0 mm 144 W/m2
15:55 17.2 °C 13.5 °C 1022.2 hPa East 1.6 km/h 8 km/h 79 % 0 mm 193 W/m2
16:00 17.3 °C 13.8 °C 1022.2 hPa East 1.6 km/h 8 km/h 80 % 0 mm 320 W/m2
16:05 17.4 °C 13.7 °C 1022.2 hPa East 1.6 km/h 8 km/h 79 % 0 mm 367 W/m2
16:10 17.7 °C 14 °C 1022.2 hPa East 3.2 km/h 14.5 km/h 79 % 0 mm 408 W/m2
16:15 17.8 °C 13.9 °C 1022.2 hPa East 3.2 km/h 14.5 km/h 78 % 0 mm 207 W/m2
16:20 17.9 °C 13.8 °C 1022.2 hPa East 4.8 km/h 11.3 km/h 77 % 0 mm 227 W/m2
16:25 17.8 °C 13.7 °C 1021.9 hPa East 6.4 km/h 12.9 km/h 77 % 0 mm 116 W/m2
16:30 17.7 °C 13.4 °C 1021.9 hPa East 6.4 km/h 12.9 km/h 76 % 0 mm 107 W/m2
16:35 17.5 °C 13.2 °C 1021.9 hPa East 6.4 km/h 12.9 km/h 76 % 0 mm 105 W/m2
16:40 17.4 °C 13.3 °C 1021.9 hPa East 6.4 km/h 12.9 km/h 77 % 0 mm 98 W/m2
16:45 17.3 °C 13.2 °C 1021.9 hPa ESE 4.8 km/h 12.9 km/h 77 % 0 mm 74 W/m2
16:50 17.3 °C 13.4 °C 1022.2 hPa ESE 4.8 km/h 12.9 km/h 78 % 0 mm 62 W/m2
16:55 17.2 °C 13.3 °C 1022.2 hPa ESE 3.2 km/h 11.3 km/h 78 % 0 mm 77 W/m2
17:00 17.1 °C 13.4 °C 1022.2 hPa ESE 3.2 km/h 9.7 km/h 79 % 0 mm 100 W/m2
17:05 17.1 °C 13.4 °C 1022.2 hPa ESE 1.6 km/h 8 km/h 79 % 0 mm 67 W/m2
17:10 17.1 °C 13.4 °C 1021.9 hPa Calm   4.8 km/h 79 % 0 mm 79 W/m2
17:16 17 °C 13.5 °C 1021.9 hPa Calm   4.8 km/h 80 % 0 mm 91 W/m2
17:21 17 °C 13.7 °C 1021.9 hPa Calm   3.2 km/h 81 % 0 mm 65 W/m2
17:26 16.9 °C 13.6 °C 1021.9 hPa Calm   3.2 km/h 81 % 0 mm 62 W/m2
17:31 16.9 °C 13.6 °C 1021.9 hPa Calm   6.4 km/h 81 % 0 mm 67 W/m2
17:36 16.8 °C 13.5 °C 1021.9 hPa East 3.2 km/h 11.3 km/h 81 % 0 mm 77 W/m2
17:41 16.8 °C 13.5 °C 1021.9 hPa East 4.8 km/h 11.3 km/h 81 % 0 mm 70 W/m2
17:46 16.8 °C 13.5 °C 1021.9 hPa East 6.4 km/h 12.9 km/h 81 % 0 mm 53 W/m2
17:51 16.8 °C 13.7 °C 1021.9 hPa East 4.8 km/h 12.9 km/h 82 % 0 mm 32 W/m2
17:56 16.7 °C 13.6 °C 1021.9 hPa East 4.8 km/h 11.3 km/h 82 % 0 mm 42 W/m2
18:01 16.7 °C 13.6 °C 1021.9 hPa ESE 4.8 km/h 11.3 km/h 82 % 0 mm 42 W/m2
18:06 16.7 °C 13.8 °C 1021.9 hPa ESE 3.2 km/h 9.7 km/h 83 % 0 mm 44 W/m2
18:16 16.5 °C 13.6 °C 1022.2 hPa East 3.2 km/h 9.7 km/h 83 % 0 mm 37 W/m2
18:21 16.4 °C 13.7 °C 1022.2 hPa East 1.6 km/h 8 km/h 84 % 0 mm 32 W/m2
18:26 16.3 °C 13.6 °C 1022.2 hPa East 1.6 km/h 8 km/h 84 % 0 mm 26 W/m2
18:31 16.2 °C 13.5 °C 1022.2 hPa East 1.6 km/h 8 km/h 84 % 0 mm 21 W/m2
18:36 16.1 °C 13.6 °C 1022.2 hPa East 1.6 km/h 8 km/h 85 % 0 mm 16 W/m2
18:41 16 °C 13.5 °C 1022.2 hPa East 1.6 km/h 8 km/h 85 % 0 mm 12 W/m2
18:46 15.9 °C 13.4 °C 1022.2 hPa Calm   8 km/h 85 % 0 mm 7 W/m2
18:51 15.8 °C 13.4 °C 1022.2 hPa Calm   4.8 km/h 86 % 0 mm 0 W/m2
18:56 15.7 °C 13.4 °C 1022.2 hPa Calm   1.6 km/h 86 % 0 mm 0 W/m2
19:01 15.6 °C 13.3 °C 1022.2 hPa Calm   3.2 km/h 86 % 0 mm 0 W/m2
19:06 15.5 °C 13.3 °C 1022.2 hPa East 1.6 km/h 8 km/h 87 % 0 mm 0 W/m2
19:11 15.5 °C 13.3 °C 1022.2 hPa East 3.2 km/h 9.7 km/h 87 % 0 mm 0 W/m2
19:16 15.5 °C 13.5 °C 1022.2 hPa East 4.8 km/h 9.7 km/h 88 % 0 mm 0 W/m2
19:21 15.4 °C 13.4 °C 1022.2 hPa East 3.2 km/h 9.7 km/h 88 % 0 mm 0 W/m2
19:26 15.4 °C 13.4 °C 1022.2 hPa East 1.6 km/h 8 km/h 88 % 0 mm 0 W/m2
19:31 15.3 °C 13.3 °C 1022.2 hPa East 1.6 km/h 6.4 km/h 88 % 0 mm 0 W/m2
19:36 15.3 °C 13.3 °C 1022.2 hPa East 1.6 km/h 8 km/h 88 % 0 mm 0 W/m2
19:41 15.2 °C 13.2 °C 1022.6 hPa East 1.6 km/h 8 km/h 88 % 0 mm 0 W/m2
19:46 15.1 °C 13.3 °C 1022.6 hPa East 1.6 km/h 8 km/h 89 % 0 mm 0 W/m2
19:51 15.1 °C 13.3 °C 1022.6 hPa East 1.6 km/h 8 km/h 89 % 0 mm 0 W/m2
19:56 15 °C 13.2 °C 1022.6 hPa East 1.6 km/h 9.7 km/h 89 % 0 mm 0 W/m2
20:01 14.9 °C 13.3 °C 1022.6 hPa Calm   9.7 km/h 90 % 0 mm 0 W/m2
20:06 14.8 °C 13.2 °C 1022.6 hPa Calm   6.4 km/h 90 % 0 mm 0 W/m2
20:11 14.8 °C 13.2 °C 1022.6 hPa East 1.6 km/h 6.4 km/h 90 % 0 mm 0 W/m2
20:16 14.7 °C 13.1 °C 1022.6 hPa East 1.6 km/h 8 km/h 90 % 0 mm 0 W/m2
20:21 14.7 °C 13.2 °C 1022.6 hPa East 1.6 km/h 8 km/h 91 % 0 mm 0 W/m2
20:26 14.8 °C 13.3 °C 1022.9 hPa East 3.2 km/h 12.9 km/h 91 % 0 mm 0 W/m2
20:31 14.8 °C 13.3 °C 1022.9 hPa East 4.8 km/h 12.9 km/h 91 % 0 mm 0 W/m2
20:37 14.8 °C 13.3 °C 1022.9 hPa East 4.8 km/h 9.7 km/h 91 % 0 mm 0 W/m2
20:42 14.8 °C 13.5 °C 1022.9 hPa East 3.2 km/h 9.7 km/h 92 % 0 mm 0 W/m2
20:47 14.8 °C 13.5 °C 1022.9 hPa East 3.2 km/h 9.7 km/h 92 % 0 mm 0 W/m2
20:52 14.7 °C 13.4 °C 1022.9 hPa East 4.8 km/h 9.7 km/h 92 % 0 mm 0 W/m2
20:57 14.7 °C 13.4 °C 1022.9 hPa East 4.8 km/h 11.3 km/h 92 % 0 mm 0 W/m2
21:02 14.6 °C 13.3 °C 1022.9 hPa East 6.4 km/h 14.5 km/h 92 % 0 mm 0 W/m2
21:07 14.5 °C 13.2 °C 1022.9 hPa East 6.4 km/h 14.5 km/h 92 % 0 mm 0 W/m2
21:12 14.5 °C 13.2 °C 1022.9 hPa East 4.8 km/h 11.3 km/h 92 % 0 mm 0 W/m2
21:17 14.4 °C 13.3 °C 1022.9 hPa East 6.4 km/h 14.5 km/h 93 % 0 mm 0 W/m2
21:22 14.3 °C 13.2 °C 1022.9 hPa East 6.4 km/h 14.5 km/h 93 % 0 mm 0 W/m2
21:27 14.3 °C 13.2 °C 1022.9 hPa East 4.8 km/h 14.5 km/h 93 % 0 mm 0 W/m2
21:32 14.2 °C 13.1 °C 1022.9 hPa East 6.4 km/h 14.5 km/h 93 % 0 mm 0 W/m2
21:37 14.2 °C 13.1 °C 1022.9 hPa East 6.4 km/h 12.9 km/h 93 % 0 mm 0 W/m2
21:42 14.1 °C 13 °C 1022.9 hPa ESE 8 km/h 19.3 km/h 93 % 0 mm 0 W/m2
21:47 14 °C 12.9 °C 1022.9 hPa ESE 9.7 km/h 19.3 km/h 93 % 0 mm 0 W/m2
21:52 14 °C 12.9 °C 1022.9 hPa ESE 9.7 km/h 19.3 km/h 93 % 0 mm 0 W/m2
21:53 14 °C 12.9 °C 1022.9 hPa ESE 9.7 km/h 19.3 km/h 93 % 0 mm 0 W/m2
21:58 13.9 °C 12.9 °C 1022.9 hPa ESE 9.7 km/h 17.7 km/h 94 % 0 mm 0 W/m2
22:03 13.8 °C 12.8 °C 1022.9 hPa ESE 11.3 km/h 19.3 km/h 94 % 0 mm 0 W/m2
22:08 13.8 °C 12.8 °C 1022.9 hPa ESE 11.3 km/h 19.3 km/h 94 % 0 mm 0 W/m2
22:13 13.7 °C 12.8 °C 1022.9 hPa ESE 11.3 km/h 22.5 km/h 94 % 0 mm 0 W/m2
22:18 13.7 °C 12.8 °C 1022.9 hPa ESE 9.7 km/h 22.5 km/h 94 % 0 mm 0 W/m2
22:23 13.6 °C 12.7 °C 1022.9 hPa East 8 km/h 14.5 km/h 94 % 0 mm 0 W/m2
22:28 13.5 °C 12.6 °C 1022.9 hPa ESE 8 km/h 17.7 km/h 94 % 0 mm 0 W/m2
22:33 13.4 °C 12.4 °C 1022.9 hPa ESE 9.7 km/h 17.7 km/h 94 % 0 mm 0 W/m2
22:38 13.4 °C 12.4 °C 1022.9 hPa ESE 9.7 km/h 17.7 km/h 94 % 0 mm 0 W/m2
22:43 13.3 °C 12.5 °C 1022.9 hPa ESE 9.7 km/h 17.7 km/h 95 % 0 mm 0 W/m2
22:48 13.3 °C 12.5 °C 1022.9 hPa ESE 6.4 km/h 12.9 km/h 95 % 0 mm 0 W/m2
22:53 13.2 °C 12.4 °C 1022.9 hPa ESE 6.4 km/h 14.5 km/h 95 % 0 mm 0 W/m2
22:58 13.2 °C 12.4 °C 1022.9 hPa ESE 9.7 km/h 17.7 km/h 95 % 0 mm 0 W/m2
23:03 13.1 °C 12.2 °C 1022.9 hPa SE 9.7 km/h 17.7 km/h 94 % 0 mm 0 W/m2
23:08 13.1 °C 12.2 °C 1022.9 hPa SE 11.3 km/h 17.7 km/h 94 % 0 mm 0 W/m2
23:13 13.1 °C 12.2 °C 1022.9 hPa SE 9.7 km/h 16.1 km/h 94 % 0 mm 0 W/m2
23:18 13.1 °C 12.3 °C 1022.9 hPa SE 8 km/h 16.1 km/h 95 % 0 mm 0 W/m2
23:23 13.1 °C 12.3 °C 1022.6 hPa SE 8 km/h 12.9 km/h 95 % 0 mm 0 W/m2
23:28 13.2 °C 12.4 °C 1022.9 hPa ESE 6.4 km/h 12.9 km/h 95 % 0 mm 0 W/m2
23:34 13.2 °C 12.4 °C 1022.9 hPa ESE 4.8 km/h 11.3 km/h 95 % 0 mm 0 W/m2
23:38 13.2 °C 12.4 °C 1022.9 hPa ESE 4.8 km/h 9.7 km/h 95 % 0 mm 0 W/m2
23:44 13.2 °C 12.4 °C 1022.9 hPa ESE 4.8 km/h 9.7 km/h 95 % 0 mm 0 W/m2
23:49 13.2 °C 12.4 °C 1022.9 hPa ESE 4.8 km/h 9.7 km/h 95 % 0 mm 0 W/m2
23:54 13.2 °C 12.4 °C 1022.6 hPa ESE 3.2 km/h 8 km/h 95 % 0 mm 0 W/m2
23:59 13.3 °C 12.5 °C 1022.6 hPa ESE 4.8 km/h 9.7 km/h 95 % 0 mm 0 W/m2
Delerius-Weather
Compliments of Weather Underground - 2.25 mb

Data updates at regular intervals.